El Centro, CA

2:24 PM PDT on September 26, 2017 (GMT -0700)
El Centro Naval Air Facility

Weather History for KNJK - May, 2013

Change the Weather History Date:

Thursday, May 9, 2013

  Actual Average Record
Temperature  
Mean Temperature 76 °F -  
Max Temperature 89 °F 89 °F 105 °F (2001)
Min Temperature 63 °F 63 °F 51 °F (2015)
Cooling Degree Days 10    
Growing Degree Days 26 (Base 50)    
Moisture  
Dew Point 43 °F    
Average Humidity 34    
Maximum Humidity 52    
Minimum Humidity 15    
Precipitation  
Precipitation 0.00 in - - ()
Sea Level Pressure  
Sea Level Pressure 29.97 in    
Wind  
Wind Speed 12 mph (WSW)    
Max Wind Speed 20 mph    
Max Gust Speed 17 mph    
Visibility 10 miles    
Events      
Averages and records for this station are not official NWS values.
T = Trace of Precipitation, MM = Missing Value Source: NWS Daily Summary

Daily Weather History Graph

Daily Weather History Graph

Search for Another Location

Airport or City:

Trip Planner

Search our weather history database for the weather conditions in past years. The results will help you decide how hot, cold, wet, or windy it might be!

Date:

Astronomy

May. 09, 2013 Rise Set
Actual Time 5:47 AM PDT 7:30 PM PDT
Civil Twilight 5:21 AM PDT 7:57 PM PDT
Nautical Twilight 4:48 AM PDT 8:29 PM PDT
Astronomical Twilight 4:14 AM PDT 9:04 PM PDT
Moon 5:33 AM PDT (5/9) 7:29 PM PDT (5/9)
Length of Visible Light 14h 36m
Length of Day
13h 42m
Waning Crescent, 0% of the Moon is Illuminated
May 9
Waning Crescent
May 9
New
May 17
First Quarter
May 24
Full
May 31
Last Quarter

Hourly Weather History & Observations

Time (PDT) Temp. Dew Point Humidity Pressure Visibility Wind Dir Wind Speed Gust Speed Precip Events Conditions
12:56 AM 66.9 °F 45.0 °F 45% 30.00 in 10.0 mi WSW 18.4 mph - N/A   Clear
1:56 AM 66.0 °F 45.0 °F 47% 30.00 in 10.0 mi West 19.6 mph - N/A   Clear
2:56 AM 66.0 °F 45.0 °F 47% 30.00 in 10.0 mi West 16.1 mph - N/A   Clear
3:56 AM 64.0 °F 44.1 °F 48% 30.00 in 10.0 mi WSW 11.5 mph - N/A   Clear
4:56 AM 64.0 °F 44.1 °F 48% 29.99 in 10.0 mi WSW 13.8 mph - N/A   Clear
5:56 AM 63.0 °F 45.0 °F 52% 29.99 in 10.0 mi WSW 12.7 mph - N/A   Clear
6:56 AM 64.9 °F 45.0 °F 48% 30.01 in 10.0 mi West 10.4 mph - N/A   Clear
7:56 AM 70.0 °F 45.0 °F 41% 30.02 in 10.0 mi WSW 12.7 mph - N/A   Clear
8:56 AM 73.9 °F 43.0 °F 33% 30.02 in 10.0 mi West 9.2 mph - N/A   Clear
9:56 AM 77.0 °F 43.0 °F 30% 30.02 in 10.0 mi WSW 5.8 mph - N/A   Clear
10:56 AM 80.1 °F 43.0 °F 27% 30.02 in 10.0 mi Variable 4.6 mph - N/A   Partly Cloudy
11:56 AM 82.0 °F 41.0 °F 23% 30.01 in 10.0 mi Calm Calm - N/A   Partly Cloudy
12:56 PM 84.0 °F 39.9 °F 21% 29.99 in 10.0 mi Variable 4.6 mph - N/A   Partly Cloudy
1:56 PM 84.9 °F 39.0 °F 20% 29.96 in 10.0 mi Variable 5.8 mph - N/A   Partly Cloudy
2:56 PM 88.0 °F 36.0 °F 16% 29.94 in 10.0 mi SSW 3.5 mph - N/A   Partly Cloudy
3:56 PM 87.1 °F 33.1 °F 15% 29.91 in 10.0 mi NNE 3.5 mph - N/A   Partly Cloudy
4:56 PM 87.1 °F 34.0 °F 15% 29.90 in 10.0 mi South 5.8 mph - N/A   Partly Cloudy
5:56 PM 86.0 °F 35.1 °F 16% 29.90 in 10.0 mi ESE 6.9 mph - N/A   Scattered Clouds
6:56 PM 84.0 °F 42.1 °F 23% 29.91 in 10.0 mi WSW 12.7 mph 17.3 mph N/A   Scattered Clouds
7:15 PM 82.4 °F 44.6 °F 26% 29.87 in 10.0 mi WNW 12.7 mph - N/A   Scattered Clouds
7:56 PM 79.0 °F 48.9 °F 35% 29.94 in 10.0 mi WSW 15.0 mph - N/A   Scattered Clouds
8:56 PM 75.0 °F 50.0 °F 41% 29.95 in 10.0 mi WSW 12.7 mph - N/A   Partly Cloudy
9:56 PM 73.0 °F 50.0 °F 44% 29.97 in 10.0 mi WSW 8.1 mph - N/A   Clear
10:56 PM 72.0 °F 48.0 °F 43% 29.98 in 10.0 mi WSW 8.1 mph - N/A   Clear
11:56 PM 70.0 °F 50.0 °F 49% 29.98 in 10.0 mi WSW 11.5 mph - N/A   Clear